Tracking 30264 objects as of 16-Feb-2025
HD Live streaming from Space Station
objects crossing your sky now

SL-8 DEB

Track SL-8 DEB now!
10-day predictions


NORAD ID: 27768
Int'l Code: 2002-054D
Perigee: 638.3 km
Apogee: 678.6 km
Inclination: 98.3 °
Period: 97.8 minutes
Semi major axis: 7029 km
RCS: 0.0033 m2 (small)
Launch date: November 28, 2002
Source: Commonwealth of Independent States (former USSR) (CIS)
Launch site: PLESETSK MISSILE AND SPACE COMPLEX (PKMTR)

Note: This is SATELLITE DEBRIS
Your satellite tracking list
Your tracking list is empty




NASA's NSSDC Master Catalog

Two Line Element Set (TLE):
1 27768U 02054D   25047.56823873  .00005974  00000-0  93071-3 0  9999
2 27768  98.3252 265.1890 0028621 301.8172  58.0248 14.73061293183727
Source of the keplerian elements: AFSPC